Location: Newark
(47.5833°N, 8.1500°E)
Time: 20:31:12
(UTC+00:00)

Tiros 1 despin weight - Pass Details

Date: 04 November 2020
Orbit: 593 x 642 km, 48.2° (Epoch: 03 December)

Event Time Altitude Azimuth Distance (km) Brightness Sun altitude
Rises 02:03:20 0° 285° (WNW) 2,858 - -42.2°
Reaches altitude 10° 02:05:41 10° 281° (W) 1,945 - -41.8°
Maximum altitude 02:10:01 54° 204° (SSW) 730 - -41.2°
Drops below altitude 10° 02:14:19 10° 128° (SE) 1,922 - -40.5°
Sets 02:16:37 0° 123° (ESE) 2,819 - -40.2°
